Terminal Aerodrome Forecast
Issued by NWS Shreveport, LA

Home | Current Version | Previous Version | Text Only | Print | Product List | Glossary On
Versions: 1 2 3 4 5 6 7 8 9 10 11 12 13 14 15 16 17 18 19 20 21
864
FTUS44 KSHV 221743
TAFGGG
TAF
KGGG 221743Z 2218/2318 06008KT P6SM -SHRA SCT012 OVC100
      TEMPO 2218/2222 4SM -SHRA BR OVC012
     FM230000 06004KT P6SM OVC015
     FM230600 02003KT 4SM BR OVC015
      TEMPO 2308/2312 2SM BR OVC010
     FM231500 33005KT P6SM VCSH OVC015=

USA.gov is the U.S. government's official web portal to all federal, state and local government web resources and services.